DW6615 Weather Reports


Display with metric or nautical units.
time (UTC)temp
F
wind
direction
speed
MPH
gust
MPH
rain 1hr
in
rain 24hr
in
rain mn
in
humidity
%
barometer
mb
20260510043400 49 158 0.0 0.0 0.00 0.16 0.00 98 1010.8
20260510043117 49 158 0.0 1.0 0.00 0.16 0.00 98 1010.8
20260510042844 49 158 0.0 1.0 0.00 0.16 0.00 98 1010.8
20260510042414 49 158 0.0 2.0 0.00 0.16 0.00 99 1010.8
20260510041857 49 158 0.0 2.0 0.00 0.16 0.00 98 1010.9
20260510041621 49 158 0.0 2.0 0.00 0.16 0.00 98 1010.9
20260510041348 49 158 0.0 1.0 0.00 0.16 0.00 98 1010.9
20260510040852 50 158 0.0 1.0 0.00 0.16 0.00 99 1010.8
20260510040342 49 158 0.0 0.0 0.00 0.16 0.00 98 1010.8
20260510040119 49 158 0.0 0.0 0.00 0.16 0.00 98 1010.9
20260510035844 49 158 0.0 0.0 0.00 0.16 0.16 98 1010.8
20260510035355 49 158 0.0 0.0 0.00 0.16 0.16 98 1010.9
20260510034840 49 158 0.0 0.0 0.00 0.16 0.16 98 1010.7
20260510034608 49 158 0.0 0.0 0.00 0.16 0.16 98 1010.8
20260510034352 49 158 0.0 0.0 0.00 0.16 0.16 98 1010.7
20260510033856 49 158 0.0 0.0 0.00 0.16 0.16 98 1010.7
20260510033348 50 158 0.0 0.0 0.00 0.16 0.16 97 1010.7
20260510033108 49 158 0.0 0.0 0.00 0.16 0.16 97 1010.7
20260510032847 50 158 0.0 0.0 0.00 0.16 0.16 98 1010.8
20260510032337 50 158 0.0 0.0 0.00 0.16 0.16 98 1010.8
20260510031843 50 158 0.0 0.0 0.00 0.16 0.16 98 1010.7
20260510031611 50 158 0.0 0.0 0.00 0.16 0.16 98 1010.7
20260510031414 50 158 0.0 0.0 0.00 0.16 0.16 97 1010.7
20260510030837 51 158 0.0 0.0 0.00 0.16 0.16 97 1010.6
20260510030346 51 158 0.0 0.0 0.00 0.16 0.16 97 1010.7
20260510030109 51 158 0.0 0.0 0.00 0.16 0.16 97 1010.8
20260510025850 51 158 0.0 0.0 0.00 0.16 0.16 97 1010.8
20260510025337 52 158 0.0 0.0 0.00 0.16 0.16 97 1010.8
20260510024847 52 158 0.0 0.0 0.00 0.16 0.16 97 1010.8
20260510024616 51 158 0.0 0.0 0.00 0.16 0.16 97 1010.7
20260510024417 52 158 0.0 0.0 0.00 0.16 0.16 97 1010.7
20260510023846 52 158 0.0 2.0 0.00 0.16 0.16 98 1010.6
20260510023356 53 158 0.0 3.0 0.00 0.16 0.16 98 1010.6
20260510023117 52 158 0.0 3.0 0.00 0.16 0.16 99 1010.6
20260510022837 52 158 1.0 5.0 0.00 0.16 0.16 99 1010.6
20260510022348 52 174 1.0 5.0 0.00 0.16 0.16 99 1010.6
20260510021909 51 126 0.0 2.0 0.00 0.16 0.16 98 1010.7
20260510021617 51 126 0.0 2.0 0.00 0.16 0.16 98 1010.6
20260510021357 51 121 0.0 1.0 0.00 0.16 0.16 98 1010.6
20260510020855 51 121 0.0 2.0 0.00 0.16 0.16 98 1010.4
20260510020345 51 121 0.0 2.0 0.00 0.16 0.16 97 1010.5
20260510020006 50 198 0.0 0.0 0.00 0.16 0.16 97 1010.5
20260510015905 51 198 0.0 0.0 0.00 0.16 0.16 97 1010.4
20260510015355 51 198 0.0 0.0 0.00 0.16 0.16 97 1010.3
20260510014902 51 197 0.0 0.0 0.00 0.16 0.16 96 1010.3
20260510014609 51 197 0.0 0.0 0.00 0.16 0.16 97 1010.3
20260510014352 51 197 0.0 0.0 0.00 0.16 0.16 97 1010.3
20260510013856 51 197 0.0 0.0 0.00 0.16 0.16 97 1010.3
20260510013346 51 197 0.0 0.0 0.00 0.16 0.16 97 1010.2
20260510013113 51 197 0.0 0.0 0.00 0.16 0.16 97 1010.3
20260510012911 51 197 0.0 0.0 0.00 0.16 0.16 97 1010.3
20260510012338 51 197 0.0 0.0 0.00 0.16 0.16 96 1010.3
20260510011848 51 197 0.0 0.0 0.00 0.16 0.16 96 1010.2
20260510011617 51 197 0.0 0.0 0.00 0.16 0.16 96 1010.2
20260510010918 51 197 0.0 0.0 0.00 0.16 0.16 95 1010.1
20260510010347 51 197 0.0 0.0 0.00 0.16 0.16 95 1010.1
20260510010109 51 197 0.0 0.0 0.00 0.16 0.16 95 1010.1
20260510005912 51 197 327.0 327.0 0.00 0.00 0.16 95 1009.9
20260510004844 52 197 0.0 0.0 0.00 0.16 0.16 94 1010.0
20260510004609 52 197 0.0 0.0 0.00 0.16 0.16 94 1009.9
20260510004350 52 197 0.0 0.0 0.00 0.16 0.16 94 1009.9
20260510003838 52 197 0.0 0.0 0.00 0.16 0.16 94 1009.9
20260510003350 53 197 0.0 0.0 0.00 0.16 0.16 93 1009.9
20260510003112 52 197 0.0 0.0 0.00 0.16 0.16 93 1009.8
20260510002853 53 197 0.0 0.0 0.00 0.16 0.16 93 1009.7
20260510002341 53 197 0.0 0.0 0.00 0.16 0.16 93 1009.6
20260510001850 54 197 0.0 0.0 0.00 0.16 0.16 92 1009.6
20260510001617 53 197 0.0 0.0 0.00 0.16 0.16 92 1009.4
20260510001345 54 197 0.0 0.0 0.00 0.16 0.16 92 1009.5
20260510000908 54 197 0.0 0.0 0.00 0.16 0.16 92 1009.5
20260510000342 55 197 0.0 0.0 0.00 0.16 0.16 91 1009.5
20260510000121 54 197 0.0 0.0 0.00 0.16 0.16 91 1009.3
20260509235846 55 197 0.0 0.0 0.00 0.16 0.16 91 1009.4
20260509235357 56 197 0.0 0.0 0.00 0.16 0.16 90 1009.3
20260509234842 56 197 0.0 0.0 0.00 0.16 0.16 90 1009.3
20260509234607 56 197 0.0 0.0 0.00 0.16 0.16 89 1009.3
20260509234352 56 197 0.0 0.0 0.00 0.16 0.16 89 1009.4
20260509233858 57 197 0.0 0.0 0.00 0.16 0.16 88 1009.4
20260509233341 57 197 0.0 0.0 0.00 0.16 0.16 88 1009.3
20260509233004 57 197 0.0 0.0 0.00 0.16 0.16 88 1009.2
20260509232904 57 197 0.0 1.0 0.00 0.16 0.16 88 1009.3
20260509232354 57 197 0.0 2.0 0.00 0.16 0.16 87 1009.4
20260509231857 58 197 0.0 2.0 0.00 0.16 0.16 87 1009.4
20260509231507 57 174 0.0 0.0 0.00 0.16 0.16 86 1009.3
20260509231407 58 174 0.0 0.0 0.00 0.16 0.16 86 1009.4
20260509230853 58 174 0.0 0.0 0.00 0.16 0.16 86 1009.4
20260509230345 58 174 0.0 2.0 0.00 0.16 0.16 85 1009.4
20260509230104 58 174 0.0 2.0 0.00 0.16 0.16 85 1009.3
20260509225849 58 174 0.0 2.0 0.00 0.16 0.16 85 1009.4
20260509225338 58 196 0.0 0.0 0.00 0.16 0.16 85 1009.3
20260509224847 58 199 0.0 2.0 0.00 0.16 0.16 85 1009.4
20260509224612 58 204 0.0 2.0 0.00 0.16 0.16 85 1009.3
20260509224357 58 181 0.0 2.0 0.00 0.16 0.16 86 1009.3
20260509223901 58 180 0.0 2.0 0.00 0.16 0.16 86 1009.2
20260509223408 58 142 0.0 2.0 0.00 0.16 0.16 86 1009.3
20260509223014 58 142 0.0 2.0 0.00 0.16 0.16 86 1009.2
20260509222910 58 142 0.0 2.0 0.00 0.16 0.16 86 1009.3
20260509222421 58 222 0.0 3.0 0.00 0.16 0.16 86 1009.2
20260509221844 58 184 1.0 3.0 0.00 0.16 0.16 86 1009.3
20260509221605 57 162 1.0 3.0 0.00 0.16 0.16 86 1009.2
20260509221412 58 150 1.0 3.0 0.00 0.16 0.16 87 1009.3
20260509220858 57 283 1.0 3.0 0.00 0.16 0.16 88 1009.4
20260509220349 57 243 0.0 5.0 0.00 0.16 0.16 88 1009.4
20260509220104 57 269 0.0 5.0 0.00 0.16 0.16 88 1009.3
20260509215850 57 251 1.0 5.0 0.00 0.16 0.16 88 1009.5
20260509215340 57 186 2.0 4.0 0.00 0.16 0.16 89 1009.5
20260509214620 56 210 0.0 3.0 0.00 0.16 0.16 90 1009.5
20260509214344 57 214 0.0 3.0 0.00 0.16 0.16 90 1009.6
20260509213359 57 205 0.0 3.0 0.00 0.16 0.16 91 1009.6
20260509213113 56 204 0.0 3.0 0.00 0.16 0.16 91 1009.5
20260509212858 56 243 1.0 3.0 0.00 0.16 0.16 91 1009.5
20260509212345 56 206 0.0 3.0 0.00 0.16 0.16 92 1009.5
20260509211855 56 227 0.0 3.0 0.00 0.16 0.16 91 1009.5
20260509211622 55 222 0.0 3.0 0.00 0.16 0.16 91 1009.4
20260509211345 56 193 0.0 3.0 0.00 0.16 0.16 91 1009.5
20260509210849 56 208 1.0 3.0 0.00 0.16 0.16 91 1009.5
20260509210359 56 173 0.0 3.0 0.00 0.16 0.16 92 1009.6
20260509210117 55 208 0.0 3.0 0.00 0.16 0.16 92 1009.6
20260509205857 56 185 0.0 2.0 0.00 0.16 0.16 92 1009.8
20260509205346 56 185 0.0 4.0 0.00 0.16 0.16 92 1009.9
20260509204855 56 228 1.0 4.0 0.00 0.16 0.16 92 1010.0
20260509204604 55 202 0.0 4.0 0.00 0.16 0.16 91 1010.0
20260509204408 56 171 1.0 4.0 0.00 0.16 0.16 91 1010.1
20260509203853 56 216 0.0 3.0 0.00 0.16 0.16 92 1009.9
20260509203346 56 211 0.0 3.0 0.00 0.16 0.16 92 1010.0
20260509203109 55 253 1.0 7.0 0.00 0.16 0.16 91 1010.0
20260509202849 56 222 1.0 7.0 0.00 0.16 0.16 92 1010.1
20260509202359 55 274 1.0 7.0 0.00 0.16 0.16 92 1010.2
20260509201839 55 287 2.0 5.0 0.00 0.16 0.16 93 1010.2
20260509201611 55 298 0.0 2.0 0.00 0.16 0.16 94 1010.1
20260509201411 55 210 0.0 2.0 0.00 0.16 0.16 94 1010.2
20260509200839 55 274 0.0 0.0 0.00 0.16 0.16 94 1010.2
20260509200352 54 286 0.0 2.0 0.00 0.16 0.16 94 1010.2
20260509200111 54 233 0.0 2.0 0.00 0.16 0.16 94 1010.1
20260509195916 54 268 0.0 2.0 0.00 0.16 0.16 94 1010.2
20260509195402 54 210 0.0 2.0 0.00 0.16 0.16 94 1010.1
20260509194851 54 213 0.0 2.0 0.00 0.16 0.16 94 1010.2
20260509194618 53 203 0.0 2.0 0.00 0.16 0.16 93 1010.1
20260509194359 54 203 1.0 2.0 0.01 0.16 0.16 93 1010.2
20260509193843 54 202 0.0 0.0 0.00 0.00 0.16 94 1010.0
20260509193354 54 220 0.0 2.0 0.01 0.16 0.16 94 1010.3
20260509193114 53 222 0.0 2.0 0.01 0.16 0.16 94 1010.2
20260509192918 54 160 0.0 2.0 0.01 0.16 0.16 94 1010.3
20260509192345 54 163 1.0 3.0 0.02 0.16 0.16 95 1010.4
20260509191851 54 279 1.0 2.0 0.02 0.16 0.16 95 1010.6
20260509191617 53 206 0.0 2.0 0.03 0.16 0.16 96 1010.5
20260509191359 53 185 0.0 2.0 0.03 0.16 0.16 95 1010.6
20260509190846 53 160 1.0 2.0 0.03 0.16 0.16 95 1010.6
20260509190357 53 166 1.0 2.0 0.03 0.16 0.16 96 1010.7
20260509190109 53 198 0.0 2.0 0.03 0.16 0.16 96 1010.7
20260509185851 53 168 0.0 2.0 0.03 0.16 0.16 95 1010.8
20260509185342 53 159 1.0 2.0 0.03 0.16 0.16 96 1011.0
20260509184846 53 222 1.0 3.0 0.04 0.16 0.16 95 1011.2
20260509184706 53 199 0.0 3.0 0.04 0.16 0.16 95 1011.2
20260509184335 53 158 1.0 3.0 0.03 0.15 0.15 95 1011.3
20260509183845 53 198 0.0 2.0 0.03 0.15 0.15 95 1011.4
20260509183357 53 192 0.0 2.0 0.03 0.15 0.15 95 1011.4
20260509183124 53 202 0.0 2.0 0.03 0.15 0.15 95 1011.2
20260509182839 53 168 1.0 2.0 0.04 0.15 0.15 95 1011.4
20260509182349 53 226 0.0 3.0 0.03 0.14 0.14 95 1011.5
20260509181857 53 201 1.0 3.0 0.03 0.14 0.14 94 1011.4
20260509181623 53 189 0.0 3.0 0.02 0.13 0.13 94 1011.3
20260509181344 53 210 0.0 2.0 0.02 0.13 0.13 94 1011.3
20260509180848 53 204 0.0 3.0 0.03 0.13 0.13 94 1011.3
20260509180400 54 229 1.0 3.0 0.03 0.13 0.13 94 1011.4
20260509180124 53 189 1.0 3.0 0.03 0.13 0.13 94 1011.4
20260509175843 54 187 1.0 2.0 0.04 0.13 0.13 94 1011.5
20260509175346 54 166 0.0 2.0 0.05 0.13 0.13 94 1011.4
20260509174852 54 186 0.0 2.0 0.05 0.12 0.12 94 1011.4
20260509174616 53 185 0.0 2.0 0.06 0.12 0.12 94 1011.4
20260509174336 54 167 0.0 2.0 0.06 0.12 0.12 94 1011.5
20260509173852 54 208 0.0 2.0 0.08 0.12 0.12 94 1011.3
20260509173340 54 243 0.0 2.0 0.09 0.12 0.12 94 1011.2
20260509173113 53 243 0.0 2.0 0.09 0.12 0.12 94 1011.1
20260509172351 54 239 0.0 2.0 0.09 0.11 0.11 93 1011.2
20260509171908 53 208 0.0 2.0 0.09 0.11 0.11 93 1011.3
20260509171609 53 275 0.0 2.0 0.09 0.11 0.11 92 1011.2
20260509171348 53 276 1.0 2.0 0.10 0.11 0.11 92 1011.2
20260509170847 54 283 0.0 2.0 0.09 0.10 0.10 92 1011.1
20260509170349 54 231 0.0 2.0 0.09 0.10 0.10 92 1011.2
20260509170106 53 291 0.0 2.0 0.09 0.10 0.10 91 1011.1
20260509165845 54 291 0.0 2.0 0.09 0.09 0.09 91 1010.9
20260509165409 54 301 1.0 3.0 0.08 0.08 0.08 91 1011.2
20260509164847 54 283 0.0 3.0 0.07 0.07 0.07 89 1011.3
20260509164610 54 283 1.0 3.0 0.06 0.06 0.06 89 1011.2
20260509164348 54 288 1.0 3.0 0.05 0.05 0.05 89 1011.4
20260509163849 55 275 1.0 3.0 0.04 0.04 0.04 89 1011.6
20260509163351 55 281 0.0 3.0 0.03 0.03 0.03 88 1011.7
20260509163112 55 205 1.0 4.0 0.03 0.03 0.03 88 1011.6
20260509162846 55 186 0.0 4.0 0.03 0.03 0.03 88 1011.7
20260509162410 55 206 1.0 5.0 0.02 0.02 0.02 86 1011.8
20260509161851 56 222 2.0 5.0 0.02 0.02 0.02 85 1011.8
20260509161612 56 206 1.0 4.0 0.02 0.02 0.02 86 1011.7
20260509160357 57 204 2.0 6.0 0.01 0.01 0.01 83 1011.8
20260509160121 57 221 1.0 6.0 0.01 0.01 0.01 82 1011.7
20260509155837 57 195 2.0 6.0 0.00 0.00 0.00 83 1011.8
20260509155341 58 261 1.0 3.0 0.00 0.00 0.00 84 1011.8
20260509154845 58 181 0.0 4.0 0.00 0.00 0.00 84 1011.8
20260509154608 57 198 0.0 4.0 0.00 0.00 0.00 83 1011.7
20260509154347 58 207 1.0 4.0 0.00 0.00 0.00 83 1011.8
20260509153848 58 192 1.0 2.0 0.00 0.00 0.00 82 1011.8
20260509153352 58 193 1.0 6.0 0.00 0.00 0.00 83 1011.8
20260509153112 57 179 0.0 6.0 0.00 0.00 0.00 82 1011.8
20260509152850 58 218 1.0 6.0 0.00 0.00 0.00 82 1011.9
20260509152352 58 193 2.0 6.0 0.00 0.00 0.00 82 1011.8
20260509151854 57 170 1.0 4.0 0.00 0.00 0.00 82 1011.8
20260509151338 57 213 1.0 4.0 0.00 0.00 0.00 82 1011.7
20260509150857 57 204 1.0 6.0 0.00 0.00 0.00 82 1011.8
20260509150420 57 206 3.0 6.0 0.00 0.00 0.00 82 1011.7
20260509150119 56 204 1.0 6.0 0.00 0.00 0.00 82 1011.7
20260509145857 57 212 2.0 6.0 0.00 0.00 0.00 82 1011.8
20260509144845 56 183 1.0 4.0 0.00 0.00 0.00 82 1011.8
20260509144609 56 209 0.0 5.0 0.00 0.00 0.00 83 1011.7
20260509144353 56 172 1.0 5.0 0.00 0.00 0.00 82 1011.6
20260509143837 56 177 1.0 5.0 0.00 0.00 0.00 82 1011.5
20260509143349 56 186 0.0 2.0 0.00 0.00 0.00 81 1011.3
20260509143105 56 186 0.0 3.0 0.00 0.00 0.00 82 1011.3
20260509142850 56 184 0.0 3.0 0.00 0.00 0.00 81 1011.3
20260509142339 56 152 1.0 3.0 0.00 0.00 0.00 82 1011.4
20260509141846 56 173 0.0 2.0 0.00 0.00 0.00 82 1011.4
20260509141611 56 178 0.0 2.0 0.00 0.00 0.00 83 1011.3
20260509141354 56 202 0.0 2.0 0.00 0.00 0.00 83 1011.4
20260509140837 56 200 0.0 2.0 0.00 0.00 0.00 82 1011.4
20260509140408 56 173 0.0 2.0 0.00 0.00 0.00 83 1011.3
20260509140105 55 171 0.0 2.0 0.00 0.00 0.00 82 1011.2
20260509135850 56 165 0.0 2.0 0.00 0.00 0.00 83 1011.3
20260509135336 56 185 0.0 2.0 0.00 0.00 0.00 83 1011.3
20260509134846 56 162 0.0 2.0 0.00 0.00 0.00 83 1011.3
20260509134611 55 162 0.0 2.0 0.00 0.00 0.00 83 1011.2
20260509134357 56 183 0.0 2.0 0.00 0.00 0.00 83 1011.4
20260509133841 55 165 0.0 2.0 0.00 0.00 0.00 83 1011.3
20260509133415 55 165 0.0 3.0 0.00 0.00 0.00 83 1011.3
20260509133111 55 165 0.0 3.0 0.00 0.00 0.00 83 1011.3
20260509132856 55 174 0.0 3.0 0.00 0.00 0.00 82 1011.3
20260509132345 55 151 0.0 2.0 0.00 0.00 0.00 84 1011.3
20260509131847 55 158 1.0 2.0 0.00 0.00 0.00 83 1011.4
20260509131616 54 172 0.0 3.0 0.00 0.00 0.00 83 1011.2
20260509131336 55 111 0.0 3.0 0.00 0.00 0.00 84 1011.1
20260509130843 55 110 1.0 3.0 0.00 0.00 0.00 84 1011.2
20260509130355 55 175 1.0 3.0 0.00 0.00 0.00 84 1011.2
20260509130115 54 150 0.0 2.0 0.00 0.00 0.00 84 1011.2
20260509125838 54 127 0.0 1.0 0.00 0.00 0.00 84 1011.1
20260509125349 54 70 0.0 1.0 0.00 0.00 0.00 86 1011.1
20260509124613 54 70 0.0 2.0 0.00 0.00 0.00 85 1011.1
20260509124336 54 70 0.0 2.0 0.00 0.00 0.00 84 1011.2
20260509123846 54 70 0.0 2.0 0.00 0.00 0.00 84 1011.2
20260509123355 54 84 0.0 0.0 0.00 0.00 0.00 84 1011.2
20260509123118 53 84 0.0 0.0 0.00 0.00 0.00 85 1011.2
20260509122900 54 84 0.0 0.0 0.00 0.00 0.00 84 1011.4
20260509122410 54 71 0.0 0.0 0.00 0.00 0.00 85 1011.3
20260509121852 53 58 0.0 4.0 0.00 0.00 0.00 84 1011.3
20260509121622 53 58 0.0 4.0 0.00 0.00 0.00 84 1011.3
20260509121341 53 124 0.0 4.0 0.00 0.00 0.00 85 1011.4
20260509120848 53 68 0.0 0.0 0.00 0.00 0.00 85 1011.5
20260509120359 53 46 0.0 2.0 0.00 0.00 0.00 85 1011.5
20260509120004 52 50 0.0 2.0 0.00 0.00 0.00 85 1011.5
20260509115903 53 50 0.0 2.0 0.00 0.00 0.00 85 1011.4
20260509115354 53 2 0.0 0.0 0.00 0.00 0.00 85 1011.4
20260509114903 52 54 0.0 1.0 0.00 0.00 0.00 86 1011.4
20260509114609 52 54 0.0 1.0 0.00 0.00 0.00 86 1011.4
20260509114351 52 54 0.0 2.0 0.00 0.00 0.00 86 1011.4
20260509113339 52 338 0.0 2.0 0.00 0.00 0.00 86 1011.2
20260509113133 51 338 0.0 2.0 0.00 0.00 0.00 86 1011.2
20260509112845 52 338 0.0 0.0 0.00 0.00 0.00 86 1011.2
20260509112356 51 302 0.0 2.0 0.00 0.00 0.00 86 1011.2
20260509111842 51 302 0.0 2.0 0.00 0.00 0.00 86 1011.2
20260509111609 51 343 0.0 2.0 0.00 0.00 0.00 86 1011.2
20260509111350 51 14 0.0 3.0 0.00 0.00 0.00 86 1011.1
20260509110911 51 6 1.0 3.0 0.00 0.00 0.00 86 1010.9
20260509110342 51 352 0.0 2.0 0.00 0.00 0.00 87 1011.1
20260509110122 50 352 0.0 2.0 0.00 0.00 0.00 87 1011.1
20260509105842 51 339 0.0 1.0 0.00 0.00 0.00 87 1011.1
20260509105413 51 339 0.0 2.0 0.00 0.00 0.00 87 1011.0
20260509104841 51 313 0.0 2.0 0.00 0.00 0.00 87 1010.9
20260509104609 50 313 0.0 2.0 0.00 0.00 0.00 87 1011.0
20260509104350 51 313 1.0 2.0 0.00 0.00 0.00 87 1010.9
20260509103841 51 323 1.0 3.0 0.00 0.00 0.00 86 1011.0
20260509103351 51 46 0.0 3.0 0.00 0.00 0.00 86 1010.9
20260509103113 50 56 0.0 3.0 0.00 0.00 0.00 86 1010.8
20260509102348 50 54 0.0 2.0 0.00 0.00 0.00 87 1010.8
20260509101854 50 16 0.0 2.0 0.00 0.00 0.00 87 1010.8
20260509101619 50 320 0.0 2.0 0.00 0.00 0.00 87 1010.9
20260509101344 50 313 0.0 2.0 0.00 0.00 0.00 87 1010.9
20260509100911 50 337 0.0 2.0 0.00 0.00 0.00 87 1010.7
20260509100339 50 8 0.0 2.0 0.00 0.00 0.00 86 1010.7
20260509100118 50 8 0.0 2.0 0.00 0.00 0.00 87 1010.8
20260509095844 51 8 0.0 2.0 0.00 0.00 0.00 87 1010.8
20260509095355 50 8 0.0 2.0 0.00 0.00 0.00 86 1010.7
20260509094839 50 8 0.0 2.0 0.00 0.00 0.00 86 1010.6
20260509094605 50 8 0.0 1.0 0.00 0.00 0.00 86 1010.8
20260509094350 50 8 0.0 1.0 0.00 0.00 0.00 86 1010.8
20260509093855 50 341 0.0 2.0 0.00 0.00 0.00 86 1010.9
20260509093347 50 341 0.0 2.0 0.00 0.00 0.00 86 1010.9
20260509093108 50 337 0.0 2.0 0.00 0.00 0.00 86 1010.9
20260509092850 50 337 0.0 2.0 0.00 0.00 0.00 86 1010.9
20260509092337 50 337 0.0 2.0 0.00 0.00 0.00 86 1011.1
20260509091844 50 337 0.0 2.0 0.00 0.00 0.00 86 1011.1
20260509091620 50 337 0.0 2.0 0.00 0.00 0.00 86 1011.2
20260509091356 50 337 0.0 2.0 0.00 0.00 0.00 86 1011.2
20260509090840 51 337 0.0 2.0 0.00 0.00 0.00 85 1011.1
20260509090348 51 337 0.0 2.0 0.00 0.00 0.00 85 1011.1
20260509090111 50 337 0.0 2.0 0.00 0.00 0.00 85 1011.2
20260509085851 51 337 1.0 2.0 0.00 0.00 0.00 85 1011.1
20260509085343 51 357 0.0 2.0 0.00 0.00 0.00 85 1011.2
20260509084850 51 23 0.0 3.0 0.00 0.00 0.00 84 1011.1
20260509084615 50 30 0.0 3.0 0.00 0.00 0.00 84 1011.2
20260509084358 50 23 1.0 3.0 0.00 0.00 0.00 85 1011.1
20260509083844 50 14 0.0 2.0 0.00 0.00 0.00 86 1011.2
20260509083356 50 352 0.0 0.0 0.00 0.00 0.00 86 1011.4
20260509083114 49 352 0.0 0.0 0.00 0.00 0.00 86 1011.5
20260509082857 50 352 0.0 0.0 0.00 0.00 0.00 86 1011.5
20260509082345 50 352 0.0 0.0 0.00 0.00 0.00 86 1011.6
20260509081852 50 352 0.0 0.0 0.00 0.00 0.00 86 1011.5
20260509081622 50 352 0.0 0.0 0.00 0.00 0.00 85 1011.5
20260509081342 50 352 0.0 0.0 0.00 0.00 0.00 85 1011.5
20260509080848 50 352 0.0 0.0 0.00 0.00 0.00 85 1011.6
20260509080400 50 352 0.0 0.0 0.00 0.00 0.00 85 1011.6
20260509080122 50 352 0.0 0.0 0.00 0.00 0.00 85 1011.7
20260509075844 50 352 0.0 0.0 0.00 0.00 0.00 84 1011.7
20260509075417 50 352 0.0 0.0 0.00 0.00 0.00 84 1011.7
20260509074843 51 352 0.0 0.0 0.00 0.00 0.00 84 1011.7
20260509074610 50 352 0.0 0.0 0.00 0.00 0.00 84 1011.8
20260509074414 51 352 0.0 0.0 0.00 0.00 0.00 83 1011.7
20260509073840 51 352 0.0 0.0 0.00 0.00 0.00 82 1011.6
20260509073350 51 352 0.0 0.0 0.00 0.00 0.00 82 1011.6
20260509073109 50 352 0.0 0.0 0.00 0.00 0.00 82 1011.7
20260509072851 51 352 0.0 0.0 0.00 0.00 0.00 82 1011.6
20260509072417 51 352 0.0 0.0 0.00 0.00 0.00 82 1011.6
20260509071841 51 352 0.0 0.0 0.00 0.00 0.00 81 1011.5
20260509071610 51 352 0.0 0.0 0.00 0.00 0.00 81 1011.5
20260509071349 51 352 0.0 0.0 0.00 0.00 0.00 81 1011.5
20260509070840 51 352 0.0 0.0 0.00 0.00 0.00 80 1011.3
20260509070350 51 339 0.0 0.0 0.00 0.00 0.00 81 1011.4
20260509070113 51 339 0.0 0.0 0.00 0.00 0.00 81 1011.4
20260509065852 51 339 0.0 0.0 0.00 0.00 0.00 81 1011.3
20260509065339 51 345 0.0 0.0 0.00 0.00 0.00 82 1011.4
20260509064847 52 345 0.0 0.0 0.00 0.00 0.00 82 1011.6
20260509064618 51 348 0.0 0.0 0.00 0.00 0.00 82 1011.6
20260509064338 52 352 0.0 0.0 0.00 0.00 0.00 82 1011.6
20260509063845 52 344 0.0 0.0 0.00 0.00 0.00 81 1011.6
20260509063411 52 344 0.0 0.0 0.00 0.00 0.00 82 1011.6
20260509063113 51 344 0.0 0.0 0.00 0.00 0.00 82 1011.7
20260509062838 52 344 0.0 0.0 0.00 0.00 0.00 82 1011.7
20260509062348 52 344 0.0 0.0 0.00 0.00 0.00 82 1011.6
20260509061853 52 344 0.0 0.0 0.00 0.00 0.00 81 1011.8
20260509061616 51 344 0.0 0.0 0.00 0.00 0.00 81 1011.9
20260509061341 52 343 0.0 0.0 0.00 0.00 0.00 79 1011.8
20260509060917 52 335 0.0 0.0 0.00 0.00 0.00 80 1011.9
20260509060345 52 335 0.0 0.0 0.00 0.00 0.00 80 1012.0
20260509055850 52 335 0.0 0.0 0.00 0.00 0.00 80 1012.1
20260509055336 52 335 0.0 0.0 0.00 0.00 0.00 80 1012.2
20260509054843 52 335 0.0 0.0 0.00 0.00 0.00 79 1012.1
20260509054606 52 335 0.0 0.0 0.00 0.00 0.00 79 1012.2
20260509054414 52 335 0.0 0.0 0.00 0.00 0.00 79 1012.1
20260509053856 52 335 0.0 0.0 0.00 0.00 0.00 80 1012.2
20260509053347 52 335 0.0 0.0 0.00 0.00 0.00 78 1012.1
20260509053106 52 335 0.0 0.0 0.00 0.00 0.00 79 1012.2
20260509052851 52 335 0.0 0.0 0.00 0.00 0.00 78 1012.0
20260509052339 52 335 0.0 0.0 0.00 0.00 0.00 79 1012.0
20260509051847 52 335 0.0 0.0 0.00 0.00 0.00 80 1012.1
20260509051612 52 335 0.0 0.0 0.00 0.00 0.00 80 1012.1
20260509051337 52 335 0.0 0.0 0.00 0.00 0.00 80 1012.1
20260509050846 53 335 0.0 0.0 0.00 0.00 0.00 80 1012.1
20260509050358 53 335 0.0 0.0 0.00 0.00 0.00 81 1012.1
20260509050119 52 335 0.0 0.0 0.00 0.00 0.00 81 1012.3
20260509045841 53 335 0.0 0.0 0.00 0.00 0.00 79 1012.1
20260509045351 53 10 0.0 1.0 0.00 0.00 0.00 77 1012.0
20260509044856 53 312 0.0 2.0 0.00 0.00 0.00 78 1012.2
20260509044604 52 228 0.0 2.0 0.00 0.00 0.00 76 1012.2
20260509044347 53 228 0.0 2.0 0.00 0.00 0.00 77 1012.3
20260509043853 53 228 0.0 1.0 0.00 0.00 0.00 78 1012.5